SCP
0 0 0 0 -0 0 0 0 0 0 0 0 0 0 0 0 0 0 0 0 0 0 0 0 0 0 0 0 0 0 0 0 0 0 0 0 0 0 0 0 0 0 0 0
0 0 0 0 0 0 0 0 0 0 0 0 0 0 0 0 0 0 0 0 0 0 0 -0 0 0 0 0 0 0 0 0 0 0 0 0 0 0 0 0 0 0 0 0
0 0 0 0 0 0 0 0 0 0 0 0 0 0 0 0 0 0 0 0 0 0 0 0 0 0 0 0 0 0 0 0 0 0 0 0 0 0 0 0 0 0 0 0
0 0 -0 -0 0 0 0 0 0 0 0 0 0 0 0 0 0 0 -0 -0 0 -0 0 0 0 0 0 0 0 0 0 0 0 0 -0 -0 0 0 0 0 0 0 0 0
0 0 0 0 -0 0 0 0 0 0 0 0 0 0 0 0 0 0 0 -0 -0 -0 0 0 0 0 0 0 0 0 0 0 0 0 0 0 0 -0 0 0 0 0 0 0
0 0 0 0 0 0 0 0 0 0 0 0 0 0 0 0 -0 0 0 0 0 0 0 0 0 0 0 0 0 0 0 0 0 0 0 0 0 0 0 0 0 0 0 0
0 0 0 0 0 0 0 0 0 0 0 0 0 0 0 -0 0 0 0 0 0 0 0 0 0 0 0 0 0 0 0 0 0 0 0 0 0 0 0 0 0 0 0 0
0 0 0 0 0 0 0 0 0 0 0 0 0 0 0 0 0 0 0 0 0 0 0 0 0 0 0 0 0 0 0 0 0 0 0 0 0 0 0 0 0 0 0 0
0 0 0 0 0 0 0 0 0 0 0 0 0 0 0 0 0 0 0 0 0 0 0 0 0 0 0 0 0 0 0 0 0 0 0 0 0 0 0 0 0 0 0 0
0 0 0 0 0 0 0 0 0 0 0 0 0 0 0 0 0 0 0 0 0 0 0 0 0 0 0 0 0 0 0 0 0 0 0 0 0 0 0 0 0 0 0 0
0 0 0 0 0 0 0 0 0 0 0 0 0 0 0 0 0 0 0 0 0 0 0 0 0 0 0 0 0 0 0 0 0 0 0 0 0 0 0 0 0 0 0 0
0 0 0 0 0 0 0 0 0 0 0 0 0 0 0 0 0 0 0 0 0 0 0 0 0 0 0 0 0 0 0 0 0 0 0 0 0 0 0 0 0 0 0 0
0 0 0 0 0 0 0 0 0 0 0 0 0 0 0 0 0 0 0 0 0 0 0 0 0 0 0 0 0 0 0 0 0 0 0 0 0 0 0 0 0 0 0 0
0 0 0 0 0 0 0 0 0 0 0 0 0 0 0 0 0 0 0 0 0 0 0 0 0 0 0 0 0 0 0 0 0 0 0 0 0 0 0 0 0 0 0 0
0 0 0 0 0 0 0 0 0 0 0 0 0 0 0 0 0 0 0 0 0 0 0 0 0 0 0 0 0 0 0 0 0 0 0 0 0 0 0 0 0 0 0 0
0 0 0 0 0 0 0 0 0 0 0 0 0 0 0 0 0 0 0 0 0 0 0 0 0 0 0 0 0 0 0 0 0 0 0 0 0 0 0 0 0 0 0 0
0 0 0 0 0 0 0 0 0 0 0 0 0 0 0 0 0 0 0 0 0 0 0 0 0 0 0 0 0 0 0 0 0 0 0 0 0 0 0 0 0 0 0 -0
0 0 0 0 0 0 0 0 0 0 0 0 0 0 0 0 0 0 0 0 0 0 0 0 0 0 0 0 0 0 0 0 0 0 0 0 0 0 0 0 0 0 0 0
0 0 0 0 0 0 0 0 0 0 0 0 0 0 0 0 0 0 0 0 0 0 0 0 0 0 0 0 0 0 0 0 0 0 0 0 0 0 0 0 0 0 0 0
0 0 0 0 0 0 0 0 0 0 0 0 0 0 0 0 0 -0 0 0 0 0 0 0 0 0 0 0 0 0 0 0 0 0 0 0 0 0 0 0 0 0 0 0
0 0 0 0 0 0 0 0 0 0 0 0 0 0 0 0 0 0 0 0 0 0 0 0 0 0 0 0 0 0 0 0 0 0 0 0 0 0 0 0 0 0 0 0
0 0 0 0 0 0 0 0 0 0 0 -0 0 0 0 0 0 0 0 0 0 0 0 0 0 0 0 0 0 0 0 0 0 0 0 0 0 0 0 0 0 0 0 0
0 0 0 0 0 0 0 0 0 0 0 0 0 0 0 -0 0 0 0 0 0 0 0 0 0 0 0 0 0 0 0 0 0 0 0 0 0 0 0 0 0 0 0 0
0 0 0 0 0 0 0 0 0 0 0 0 0 0 -0 -0 -0 0 0 0 0 0 0 0 0 0 0 0 0 0 0 0 0 0 0 0 0 0 0 0 0 0 0 0
0 0 0 0 0 0 0 0 0 0 0 0 0 0 -0 -0 0 0 0 0 0 0 0 0 0 0 0 0 0 0 0 0 0 0 0 0 0 0 0 0 0 0 0 0
0 0 0 0 0 0 0 0 0 0 0 0 0 0 0 0 0 0 0 0 0 0 0 0 0 0 0 0 0 0 0 0 0 0 0 0 0 0 0 0 0 0 0 0
Wind_Speed_500mb
9 12 3 7 6 7 7 4 9 3 8 16 9 13 17 27 31 26 6 5 15 13 9 14 22 19 18 24 22 21 15 22 27 27 30 32 33 25 30 31 34 42 46 52
13 2 8 5 13 13 7 12 8 7 6 23 25 23 12 27 19 34 12 2 13 15 8 13 11 16 8 21 28 25 23 32 41 34 22 27 30 31 36 42 44 47 51 52
7 8 6 8 13 14 3 3 8 19 2 11 10 27 19 18 40 41 31 15 6 4 7 4 19 17 19 30 33 29 17 25 38 25 28 26 23 32 35 43 46 43 41 36
6 16 11 18 11 9 8 11 10 17 8 4 4 4 14 18 16 39 30 18 7 4 6 11 16 18 23 33 33 27 27 39 39 37 42 43 38 36 38 37 37 28 28 26
8 13 15 14 5 5 4 14 11 9 11 9 20 11 13 11 17 16 33 13 11 3 7 13 13 24 25 30 29 29 31 27 38 40 42 41 40 37 35 32 29 31 34 39
6 6 9 4 6 6 12 10 17 10 6 9 13 8 11 9 12 12 20 19 16 13 9 13 16 17 20 26 28 33 36 37 39 39 36 35 37 34 33 35 37 41 44 47
15 9 11 15 8 12 7 13 7 9 10 7 6 11 10 11 10 8 18 20 23 25 23 24 27 25 24 29 35 36 34 35 35 35 36 41 40 40 42 45 48 50 48 43
6 10 11 18 5 2 10 10 10 7 6 5 9 5 6 7 6 12 14 19 18 17 23 25 25 27 30 29 29 31 30 35 32 32 33 38 36 36 38 37 31 30 31 26
8 3 5 4 9 3 3 10 5 13 6 6 2 1 8 6 9 13 16 23 22 19 19 19 23 27 25 28 31 29 39 36 33 32 36 41 43 44 36 34 32 31 31 27
12 7 2 6 3 17 9 11 8 8 4 2 5 4 8 6 8 8 9 12 16 18 16 20 26 26 27 35 32 30 34 32 33 37 42 46 47 38 32 32 31 31 32 30
9 8 5 5 10 3 10 5 12 10 7 8 3 9 10 16 12 4 13 9 7 10 17 25 28 25 25 28 21 24 29 29 36 41 45 47 44 37 31 31 33 33 33 34
2 10 5 4 1 1 2 4 6 9 5 3 6 9 5 11 8 7 10 4 10 8 15 24 23 20 23 22 21 25 28 33 40 43 50 50 37 35 34 34 32 32 33 33
13 5 6 14 11 3 6 5 8 9 6 5 7 9 2 6 8 8 2 8 7 7 12 19 23 23 24 24 25 26 29 35 41 46 53 43 35 33 35 35 32 33 32 29
11 7 12 13 9 4 6 3 5 7 6 8 8 5 11 12 11 5 8 12 2 8 14 23 23 26 27 24 24 26 31 38 42 46 47 38 38 34 34 34 31 31 33 31
9 8 0 5 5 6 4 6 8 8 7 8 10 15 14 20 18 14 14 12 4 11 15 21 22 25 25 19 21 27 32 37 39 40 38 31 31 26 29 30 31 33 35 31
7 2 3 13 5 5 6 12 11 5 5 5 9 7 4 24 25 14 16 12 12 13 15 15 18 22 21 21 25 28 27 35 33 34 30 31 29 26 28 30 31 34 40 33
7 9 6 2 6 8 9 7 5 4 4 11 8 8 18 12 25 20 13 18 15 11 13 15 16 17 19 26 30 27 30 35 32 32 27 31 32 29 28 30 30 35 37 38
9 8 5 5 5 0 11 7 4 6 1 1 3 4 14 22 25 16 14 16 10 10 17 15 14 14 24 30 31 24 29 25 32 33 27 31 32 29 27 26 29 33 36 36
10 9 7 7 3 7 4 7 2 5 8 4 3 13 16 24 15 11 19 13 7 11 16 12 11 13 22 26 30 21 28 19 26 30 30 31 33 29 27 28 30 31 33 34
10 13 9 4 6 8 9 4 10 10 8 6 16 22 27 26 5 12 22 14 6 11 13 10 11 10 16 20 30 24 30 19 24 25 28 30 28 29 23 25 27 32 32 35
7 7 8 3 3 12 9 8 12 10 12 13 22 27 35 16 15 6 18 12 7 13 10 9 9 6 11 18 28 31 24 20 24 26 25 24 26 26 25 23 24 27 29 28
10 10 5 6 5 7 21 11 11 12 19 17 20 28 44 39 12 13 16 6 11 10 5 5 9 8 9 17 27 32 24 21 24 28 20 21 22 23 27 27 26 25 27 25
2 11 10 14 11 4 41 5 16 26 29 25 23 19 34 37 21 21 12 9 7 5 2 7 10 9 10 17 29 30 26 21 25 22 16 22 19 19 23 25 28 27 26 25
1 6 6 5 6 10 31 14 18 31 20 11 14 16 13 33 30 23 17 7 4 1 4 8 8 10 10 15 22 24 26 20 24 18 18 20 18 18 21 22 24 26 24 23
5 11 8 6 9 3 16 35 23 28 20 20 24 21 15 22 29 26 14 6 2 1 4 6 9 7 9 13 17 20 23 17 17 20 16 17 19 21 22 21 22 25 25 22
13 12 8 10 16 20 19 35 36 33 27 28 28 32 29 29 26 24 12 5 2 2 5 4 8 7 9 11 15 17 18 14 9 15 16 14 17 19 22 21 20 20 21 22
Wind_Direction_500mb
15 58 23 283 185 171 146 74 71 153 229 66 23 56 22 31 44 42 41 154 178 217 244 307 311 337 2 7 4 345 338 8 353 334 317 315 307 295 299 302 291 287 289 290
11 115 204 240 89 104 64 94 65 29 74 92 68 31 348 27 29 33 61 109 134 145 211 267 332 350 37 9 14 349 317 315 319 322 315 307 305 299 300 298 299 293 291 298
150 276 260 148 70 80 357 207 164 154 111 59 49 38 13 354 33 48 55 89 137 152 169 41 50 25 3 351 351 0 355 345 338 312 323 320 308 300 305 303 302 304 313 309
23 321 50 100 105 124 55 337 171 123 75 93 7 152 2 340 6 35 37 64 88 127 105 16 28 0 347 350 351 342 321 318 325 331 329 331 327 322 322 319 323 324 313 310
288 14 39 66 24 162 86 46 50 102 90 73 356 79 294 354 358 2 13 69 69 87 0 11 358 2 6 354 339 336 342 337 327 322 323 326 329 338 341 344 347 341 329 318
7 340 57 54 7 31 146 70 43 56 76 53 313 108 308 3 312 334 2 37 47 51 46 32 19 7 1 356 3 4 354 345 339 332 333 353 358 356 350 342 333 326 322 317
355 360 339 39 4 23 91 67 3 10 20 188 299 57 229 320 331 342 336 23 49 61 54 40 39 37 25 13 1 359 358 357 355 355 355 356 351 340 332 326 320 314 313 314
96 356 9 343 56 191 34 117 146 195 184 229 6 112 265 293 20 33 37 42 52 59 49 51 42 27 14 8 11 6 15 9 7 7 3 356 343 338 334 332 339 343 342 342
133 275 325 59 35 44 132 48 163 106 19 71 239 325 295 2 29 63 38 59 63 70 68 50 26 13 9 13 13 23 19 18 17 9 359 356 354 349 355 1 4 6 10 9
188 101 70 297 2 36 98 154 57 19 128 188 288 243 224 226 225 286 353 53 77 84 66 37 20 11 11 8 10 18 11 8 9 1 358 357 357 0 6 10 14 14 12 4
128 96 278 31 29 331 348 29 55 109 115 156 185 259 212 203 221 324 301 341 113 84 40 20 13 5 360 1 2 1 359 1 0 0 360 360 6 9 10 14 14 12 7 8
116 123 98 185 323 191 197 98 103 112 222 70 136 282 27 198 209 249 306 62 113 51 17 9 4 355 350 345 340 348 355 359 1 3 2 1 9 20 18 14 13 9 8 9
178 31 60 352 358 347 63 54 97 103 83 184 123 265 162 186 215 229 271 155 95 35 358 354 2 3 350 333 338 348 353 360 2 2 1 5 11 10 11 10 9 10 12 12
102 101 149 181 197 146 63 108 117 99 104 176 215 234 233 228 211 121 172 171 109 349 340 355 356 359 354 335 336 346 354 359 359 1 4 11 16 17 15 12 10 9 12 10
89 96 137 73 141 125 127 81 186 200 166 143 213 193 214 200 183 153 178 181 270 310 341 347 352 352 355 343 345 351 354 360 2 2 6 14 11 13 13 17 17 13 12 20
10 127 93 27 28 51 75 32 89 93 125 57 113 242 252 179 153 159 183 201 252 292 328 344 346 350 356 354 354 353 358 360 2 4 13 18 17 19 20 19 22 23 28 29
68 120 82 98 339 48 9 332 321 180 172 148 173 238 154 147 170 183 208 216 248 294 333 338 340 351 11 6 12 1 3 1 9 9 18 22 16 16 18 21 24 23 25 27
115 89 72 148 45 114 251 312 218 139 331 274 335 191 170 175 180 190 214 228 252 310 340 335 339 4 19 21 13 4 2 10 15 16 22 16 17 16 16 19 17 17 22 25
66 113 72 113 97 298 280 248 158 88 294 147 109 115 117 133 148 227 214 235 260 316 335 337 342 7 16 18 13 357 358 14 10 13 15 14 14 10 13 19 22 20 22 24
60 68 105 105 117 208 245 194 129 117 314 215 172 163 147 145 150 244 214 210 253 319 326 335 346 356 13 14 16 6 358 3 355 354 2 5 7 2 6 18 23 21 23 29
29 18 109 89 142 290 235 157 137 78 240 191 203 190 175 191 190 329 189 200 291 317 305 333 311 322 355 10 15 8 5 4 359 357 351 2 10 9 20 22 18 17 20 26
165 131 153 95 89 282 168 128 172 191 165 184 208 221 204 205 215 188 182 227 292 291 306 334 286 289 337 360 10 10 5 6 1 1 10 18 22 31 38 32 28 24 26 31
193 177 178 171 210 241 182 199 181 167 176 197 207 223 215 202 193 187 203 260 296 256 335 354 285 280 327 356 8 12 8 6 2 5 21 15 25 32 30 30 32 31 29 36
8 153 123 116 244 229 202 205 195 190 196 201 206 198 193 208 201 202 212 249 312 59 4 9 332 279 317 358 12 9 9 10 11 19 25 25 35 30 22 27 25 28 26 36
192 147 149 278 274 238 223 218 212 194 200 206 200 193 159 191 201 205 208 245 280 12 354 11 356 282 297 347 2 1 5 10 15 22 27 33 31 27 29 24 26 33 32 32
191 172 156 221 211 194 216 217 204 199 205 214 208 195 200 207 210 195 212 222 252 326 339 346 346 301 281 321 343 353 3 11 16 21 24 26 32 35 27 28 25 21 29 25
Wind_Speed_850mb
9 12 3 7 6 7 7 4 9 3 8 16 9 13 17 27 31 26 6 5 15 13 9 14 22 19 18 24 22 21 15 22 27 27 30 32 33 25 30 31 34 42 46 52
13 2 8 5 13 13 7 12 8 7 6 23 25 23 12 27 19 34 12 2 13 15 8 13 11 16 8 21 28 25 23 32 41 34 22 27 30 31 36 42 44 47 51 52
7 8 6 8 13 14 3 3 8 19 2 11 10 27 19 18 40 41 31 15 6 4 7 4 19 17 19 30 33 29 17 25 38 25 28 26 23 32 35 43 46 43 41 36
6 16 11 18 11 9 8 11 10 17 8 4 4 4 14 18 16 39 30 18 7 4 6 11 16 18 23 33 33 27 27 39 39 37 42 43 38 36 38 37 37 28 28 26
8 13 15 14 5 5 4 14 11 9 11 9 20 11 13 11 17 16 33 13 11 3 7 13 13 24 25 30 29 29 31 27 38 40 42 41 40 37 35 32 29 31 34 39
6 6 9 4 6 6 12 10 17 10 6 9 13 8 11 9 12 12 20 19 16 13 9 13 16 17 20 26 28 33 36 37 39 39 36 35 37 34 33 35 37 41 44 47
15 9 11 15 8 12 7 13 7 9 10 7 6 11 10 11 10 8 18 20 23 25 23 24 27 25 24 29 35 36 34 35 35 35 36 41 40 40 42 45 48 50 48 43
6 10 11 18 5 2 10 10 10 7 6 5 9 5 6 7 6 12 14 19 18 17 23 25 25 27 30 29 29 31 30 35 32 32 33 38 36 36 38 37 31 30 31 26
8 3 5 4 9 3 3 10 5 13 6 6 2 1 8 6 9 13 16 23 22 19 19 19 23 27 25 28 31 29 39 36 33 32 36 41 43 44 36 34 32 31 31 27
12 7 2 6 3 17 9 11 8 8 4 2 5 4 8 6 8 8 9 12 16 18 16 20 26 26 27 35 32 30 34 32 33 37 42 46 47 38 32 32 31 31 32 30
9 8 5 5 10 3 10 5 12 10 7 8 3 9 10 16 12 4 13 9 7 10 17 25 28 25 25 28 21 24 29 29 36 41 45 47 44 37 31 31 33 33 33 34
2 10 5 4 1 1 2 4 6 9 5 3 6 9 5 11 8 7 10 4 10 8 15 24 23 20 23 22 21 25 28 33 40 43 50 50 37 35 34 34 32 32 33 33
13 5 6 14 11 3 6 5 8 9 6 5 7 9 2 6 8 8 2 8 7 7 12 19 23 23 24 24 25 26 29 35 41 46 53 43 35 33 35 35 32 33 32 29
11 7 12 13 9 4 6 3 5 7 6 8 8 5 11 12 11 5 8 12 2 8 14 23 23 26 27 24 24 26 31 38 42 46 47 38 38 34 34 34 31 31 33 31
9 8 0 5 5 6 4 6 8 8 7 8 10 15 14 20 18 14 14 12 4 11 15 21 22 25 25 19 21 27 32 37 39 40 38 31 31 26 29 30 31 33 35 31
7 2 3 13 5 5 6 12 11 5 5 5 9 7 4 24 25 14 16 12 12 13 15 15 18 22 21 21 25 28 27 35 33 34 30 31 29 26 28 30 31 34 40 33
7 9 6 2 6 8 9 7 5 4 4 11 8 8 18 12 25 20 13 18 15 11 13 15 16 17 19 26 30 27 30 35 32 32 27 31 32 29 28 30 30 35 37 38
9 8 5 5 5 0 11 7 4 6 1 1 3 4 14 22 25 16 14 16 10 10 17 15 14 14 24 30 31 24 29 25 32 33 27 31 32 29 27 26 29 33 36 36
10 9 7 7 3 7 4 7 2 5 8 4 3 13 16 24 15 11 19 13 7 11 16 12 11 13 22 26 30 21 28 19 26 30 30 31 33 29 27 28 30 31 33 34
10 13 9 4 6 8 9 4 10 10 8 6 16 22 27 26 5 12 22 14 6 11 13 10 11 10 16 20 30 24 30 19 24 25 28 30 28 29 23 25 27 32 32 35
7 7 8 3 3 12 9 8 12 10 12 13 22 27 35 16 15 6 18 12 7 13 10 9 9 6 11 18 28 31 24 20 24 26 25 24 26 26 25 23 24 27 29 28
10 10 5 6 5 7 21 11 11 12 19 17 20 28 44 39 12 13 16 6 11 10 5 5 9 8 9 17 27 32 24 21 24 28 20 21 22 23 27 27 26 25 27 25
2 11 10 14 11 4 41 5 16 26 29 25 23 19 34 37 21 21 12 9 7 5 2 7 10 9 10 17 29 30 26 21 25 22 16 22 19 19 23 25 28 27 26 25
1 6 6 5 6 10 31 14 18 31 20 11 14 16 13 33 30 23 17 7 4 1 4 8 8 10 10 15 22 24 26 20 24 18 18 20 18 18 21 22 24 26 24 23
5 11 8 6 9 3 16 35 23 28 20 20 24 21 15 22 29 26 14 6 2 1 4 6 9 7 9 13 17 20 23 17 17 20 16 17 19 21 22 21 22 25 25 22
13 12 8 10 16 20 19 35 36 33 27 28 28 32 29 29 26 24 12 5 2 2 5 4 8 7 9 11 15 17 18 14 9 15 16 14 17 19 22 21 20 20 21 22
Wind_Direction_850mb
15 58 23 283 185 171 146 74 71 153 229 66 23 56 22 31 44 42 41 154 178 217 244 307 311 337 2 7 4 345 338 8 353 334 317 315 307 295 299 302 291 287 289 290
11 115 204 240 89 104 64 94 65 29 74 92 68 31 348 27 29 33 61 109 134 145 211 267 332 350 37 9 14 349 317 315 319 322 315 307 305 299 300 298 299 293 291 298
150 276 260 148 70 80 357 207 164 154 111 59 49 38 13 354 33 48 55 89 137 152 169 41 50 25 3 351 351 0 355 345 338 312 323 320 308 300 305 303 302 304 313 309
23 321 50 100 105 124 55 337 171 123 75 93 7 152 2 340 6 35 37 64 88 127 105 16 28 0 347 350 351 342 321 318 325 331 329 331 327 322 322 319 323 324 313 310
288 14 39 66 24 162 86 46 50 102 90 73 356 79 294 354 358 2 13 69 69 87 0 11 358 2 6 354 339 336 342 337 327 322 323 326 329 338 341 344 347 341 329 318
7 340 57 54 7 31 146 70 43 56 76 53 313 108 308 3 312 334 2 37 47 51 46 32 19 7 1 356 3 4 354 345 339 332 333 353 358 356 350 342 333 326 322 317
355 360 339 39 4 23 91 67 3 10 20 188 299 57 229 320 331 342 336 23 49 61 54 40 39 37 25 13 1 359 358 357 355 355 355 356 351 340 332 326 320 314 313 314
96 356 9 343 56 191 34 117 146 195 184 229 6 112 265 293 20 33 37 42 52 59 49 51 42 27 14 8 11 6 15 9 7 7 3 356 343 338 334 332 339 343 342 342
133 275 325 59 35 44 132 48 163 106 19 71 239 325 295 2 29 63 38 59 63 70 68 50 26 13 9 13 13 23 19 18 17 9 359 356 354 349 355 1 4 6 10 9
188 101 70 297 2 36 98 154 57 19 128 188 288 243 224 226 225 286 353 53 77 84 66 37 20 11 11 8 10 18 11 8 9 1 358 357 357 0 6 10 14 14 12 4
128 96 278 31 29 331 348 29 55 109 115 156 185 259 212 203 221 324 301 341 113 84 40 20 13 5 360 1 2 1 359 1 0 0 360 360 6 9 10 14 14 12 7 8
116 123 98 185 323 191 197 98 103 112 222 70 136 282 27 198 209 249 306 62 113 51 17 9 4 355 350 345 340 348 355 359 1 3 2 1 9 20 18 14 13 9 8 9
178 31 60 352 358 347 63 54 97 103 83 184 123 265 162 186 215 229 271 155 95 35 358 354 2 3 350 333 338 348 353 360 2 2 1 5 11 10 11 10 9 10 12 12
102 101 149 181 197 146 63 108 117 99 104 176 215 234 233 228 211 121 172 171 109 349 340 355 356 359 354 335 336 346 354 359 359 1 4 11 16 17 15 12 10 9 12 10
89 96 137 73 141 125 127 81 186 200 166 143 213 193 214 200 183 153 178 181 270 310 341 347 352 352 355 343 345 351 354 360 2 2 6 14 11 13 13 17 17 13 12 20
10 127 93 27 28 51 75 32 89 93 125 57 113 242 252 179 153 159 183 201 252 292 328 344 346 350 356 354 354 353 358 360 2 4 13 18 17 19 20 19 22 23 28 29
68 120 82 98 339 48 9 332 321 180 172 148 173 238 154 147 170 183 208 216 248 294 333 338 340 351 11 6 12 1 3 1 9 9 18 22 16 16 18 21 24 23 25 27
115 89 72 148 45 114 251 312 218 139 331 274 335 191 170 175 180 190 214 228 252 310 340 335 339 4 19 21 13 4 2 10 15 16 22 16 17 16 16 19 17 17 22 25
66 113 72 113 97 298 280 248 158 88 294 147 109 115 117 133 148 227 214 235 260 316 335 337 342 7 16 18 13 357 358 14 10 13 15 14 14 10 13 19 22 20 22 24
60 68 105 105 117 208 245 194 129 117 314 215 172 163 147 145 150 244 214 210 253 319 326 335 346 356 13 14 16 6 358 3 355 354 2 5 7 2 6 18 23 21 23 29
29 18 109 89 142 290 235 157 137 78 240 191 203 190 175 191 190 329 189 200 291 317 305 333 311 322 355 10 15 8 5 4 359 357 351 2 10 9 20 22 18 17 20 26
165 131 153 95 89 282 168 128 172 191 165 184 208 221 204 205 215 188 182 227 292 291 306 334 286 289 337 360 10 10 5 6 1 1 10 18 22 31 38 32 28 24 26 31
193 177 178 171 210 241 182 199 181 167 176 197 207 223 215 202 193 187 203 260 296 256 335 354 285 280 327 356 8 12 8 6 2 5 21 15 25 32 30 30 32 31 29 36
8 153 123 116 244 229 202 205 195 190 196 201 206 198 193 208 201 202 212 249 312 59 4 9 332 279 317 358 12 9 9 10 11 19 25 25 35 30 22 27 25 28 26 36
192 147 149 278 274 238 223 218 212 194 200 206 200 193 159 191 201 205 208 245 280 12 354 11 356 282 297 347 2 1 5 10 15 22 27 33 31 27 29 24 26 33 32 32
191 172 156 221 211 194 216 217 204 199 205 214 208 195 200 207 210 195 212 222 252 326 339 346 346 301 281 321 343 353 3 11 16 21 24 26 32 35 27 28 25 21 29 25